Weather History for Georgetown, SC

Change the Weather History Date:

Wednesday, January 18, 2012

  Actual Average Record
Temperature  
Mean Temperature 51 °F -  
Max Temperature 60 °F 57 °F 60 °F (2012)
Min Temperature 42 °F 34 °F 28 °F (2014)
Degree Days  
Heating Degree Days 14    
Growing Degree Days 1 (Base 50)    
Moisture  
Dew Point 49 °F    
Average Humidity 78    
Maximum Humidity 94    
Minimum Humidity 62    
Precipitation  
Precipitation 0.24 in - - ()
Sea Level Pressure  
Sea Level Pressure 30.00 in    
Wind  
Wind Speed 9 mph (WNW)    
Max Wind Speed 16 mph    
Max Gust Speed 22 mph    
Visibility 9 miles    
Events Rain    
Averages and records for this station are not official NWS values.
T = Trace of Precipitation, MM = Missing Value Source: NWS Daily Summary

Daily Weather History Graph

Daily Weather History Graph

Search for Another Location

Airport:

Trip Planner

Search our weather history database for the weather conditions in past years. The results will help you decide how hot, cold, wet, or windy it might be!

Date:

Astronomy

Jan. 18, 2012 Rise Set
Actual Time 7:20 AM EST 5:35 PM EST
Civil Twilight 6:53 AM EST 6:01 PM EST
Nautical Twilight 6:23 AM EST 6:32 PM EST
Astronomical Twilight 5:53 AM EST 7:01 PM EST
Moon 2:46 AM EST (1/18) 1:14 PM EST (1/18)
Length of Visible Light 11h 08m
Length of Day
10h 14m
Waning Crescent, 25% of the Moon is Illuminated
Jan 18
Waning Crescent
Jan 23
New
Jan 30
First Quarter
Feb 7
Full
Feb 14
Last Quarter

Hourly Weather History & Observations

Time (EST) Temp. Windchill Dew Point Humidity Pressure Visibility Wind Dir Wind Speed Gust Speed Precip Events Conditions
12:15 AM 59.0 °F - 51.8 °F 77% 30.05 in 10.0 mi SSW 9.2 mph - N/A   Drizzle
12:35 AM 59.0 °F - 51.8 °F 77% 30.05 in 10.0 mi SSW 8.1 mph - N/A Rain Light Rain
12:55 AM 59.0 °F - 53.6 °F 82% 30.04 in 10.0 mi SSW 9.2 mph - N/A   Drizzle
1:15 AM 59.0 °F - 53.6 °F 82% 30.03 in 10.0 mi SSW 8.1 mph - 0.02 in Rain Light Rain
1:35 AM 59.0 °F - 53.6 °F 82% 30.01 in 10.0 mi South 8.1 mph - 0.03 in Rain Light Rain
1:55 AM 59.0 °F - 53.6 °F 82% 30.01 in 10.0 mi SSW 8.1 mph - 0.03 in   Overcast
2:15 AM 59.0 °F - 53.6 °F 82% 30.00 in 10.0 mi SSW 10.4 mph 17.3 mph N/A   Overcast
2:35 AM 59.0 °F - 53.6 °F 82% 29.99 in 10.0 mi SSW 10.4 mph - N/A   Overcast
2:55 AM 59.0 °F - 53.6 °F 82% 30.00 in 10.0 mi SSW 10.4 mph - N/A   Overcast
3:15 AM 59.0 °F - 53.6 °F 82% 30.00 in 10.0 mi SW 9.2 mph - N/A   Light Drizzle
3:35 AM 59.0 °F - 53.6 °F 82% 29.99 in 10.0 mi SW 10.4 mph 17.3 mph N/A Rain Rain
3:55 AM 59.0 °F - 53.6 °F 82% 29.98 in 7.0 mi SW 10.4 mph - 0.02 in Rain Light Rain
4:35 AM 59.0 °F - 53.6 °F 82% 29.98 in 7.0 mi SW 12.7 mph - 0.02 in Rain Light Rain
4:55 AM 57.2 °F - 53.6 °F 88% 29.94 in 7.0 mi SSW 12.7 mph 21.9 mph 0.06 in Rain Light Rain
5:15 AM 59.0 °F - 55.4 °F 88% 29.98 in 10.0 mi WSW 12.7 mph - 0.01 in   Drizzle
5:35 AM 59.0 °F - 55.4 °F 88% 29.97 in 10.0 mi SW 10.4 mph - 0.01 in   Light Drizzle
5:55 AM 59.0 °F - 55.4 °F 88% 29.95 in 10.0 mi SW 9.2 mph - 0.01 in   Overcast
6:15 AM 59.0 °F - 55.4 °F 88% 29.95 in 10.0 mi SSW 10.4 mph - N/A   Mostly Cloudy
6:35 AM 59.0 °F - 55.4 °F 88% 29.96 in 10.0 mi SW 8.1 mph - N/A   Overcast
6:55 AM 59.0 °F - 55.4 °F 88% 29.97 in 10.0 mi SW 9.2 mph - N/A   Overcast
7:15 AM 59.0 °F - 55.4 °F 88% 29.97 in 10.0 mi SW 9.2 mph - N/A   Light Drizzle
7:35 AM 59.0 °F - 55.4 °F 88% 29.97 in 10.0 mi SW 9.2 mph - N/A   Overcast
7:55 AM 59.0 °F - 55.4 °F 88% 29.98 in 10.0 mi SW 8.1 mph - N/A   Overcast
8:15 AM 59.0 °F - 55.4 °F 88% 29.99 in 10.0 mi SW 9.2 mph - N/A Rain Rain
8:35 AM 59.0 °F - 55.4 °F 88% 29.99 in 5.0 mi SW 6.9 mph - 0.02 in Rain Rain
8:55 AM 59.0 °F - 55.4 °F 88% 30.01 in 10.0 mi WSW 6.9 mph - 0.02 in   Overcast
9:15 AM 59.0 °F - 55.4 °F 88% 30.01 in 7.0 mi WSW 9.2 mph - N/A Rain Light Rain
9:35 AM 59.0 °F - 55.4 °F 88% 30.01 in 5.0 mi WSW 8.1 mph - 0.03 in Rain Rain
9:55 AM 59.0 °F - 55.4 °F 88% 30.02 in 3.0 mi WSW 10.4 mph - 0.07 in Rain Rain
10:15 AM 59.0 °F - 55.4 °F 88% 30.02 in 4.0 mi West 6.9 mph - 0.02 in Rain Rain
10:35 AM 59.0 °F - 57.2 °F 94% 30.01 in 10.0 mi West 8.1 mph - 0.03 in   Overcast
10:55 AM 60.8 °F - 57.2 °F 88% 30.00 in 10.0 mi West 6.9 mph - 0.03 in   Overcast
11:15 AM 60.8 °F - 55.4 °F 82% 29.99 in 10.0 mi NW 8.1 mph - N/A   Overcast
11:35 AM 60.8 °F - 55.4 °F 82% 29.98 in 10.0 mi NW 16.1 mph 19.6 mph N/A   Overcast
11:55 AM 57.2 °F - 53.6 °F 88% 29.98 in 10.0 mi North 10.4 mph 17.3 mph N/A   Overcast
12:15 PM 59.0 °F - 51.8 °F 77% 29.98 in 10.0 mi North 6.9 mph - N/A   Overcast
12:35 PM 59.0 °F - 51.8 °F 77% 29.98 in 10.0 mi North 8.1 mph - N/A   Mostly Cloudy
12:55 PM 57.2 °F - 50.0 °F 77% 29.98 in 10.0 mi North 10.4 mph - N/A   Overcast
1:15 PM 57.2 °F - 50.0 °F 77% 29.98 in 10.0 mi NNW 9.2 mph - N/A   Overcast
1:35 PM 59.0 °F - 50.0 °F 72% 29.98 in 10.0 mi North 9.2 mph - N/A   Overcast
1:55 PM 57.2 °F - 50.0 °F 77% 29.98 in 10.0 mi NNW 8.1 mph - N/A   Overcast
2:35 PM 57.2 °F - 46.4 °F 67% 29.98 in 10.0 mi NNW 5.8 mph - N/A   Mostly Cloudy
2:55 PM 57.2 °F - 46.4 °F 67% 29.98 in 10.0 mi North 6.9 mph - N/A   Mostly Cloudy
3:15 PM 55.4 °F - 46.4 °F 72% 29.98 in 10.0 mi North 8.1 mph - N/A   Mostly Cloudy
3:35 PM 55.4 °F - 44.6 °F 67% 29.99 in 10.0 mi NNW 6.9 mph - N/A   Scattered Clouds
3:55 PM 55.4 °F - 44.6 °F 67% 29.99 in 10.0 mi NNW 5.8 mph - N/A   Clear
4:15 PM 55.4 °F - 44.6 °F 67% 30.00 in 10.0 mi North 6.9 mph - N/A   Clear
4:35 PM 55.4 °F - 42.8 °F 63% 30.00 in 10.0 mi North 6.9 mph - N/A   Clear
4:55 PM 55.4 °F - 42.8 °F 63% 30.00 in 10.0 mi North 8.1 mph - N/A   Clear
5:15 PM 53.6 °F - 41.0 °F 62% 30.01 in 10.0 mi North 5.8 mph - N/A   Clear
5:35 PM 50.0 °F - 37.4 °F 62% 30.01 in 10.0 mi NE 4.6 mph - N/A   Clear
5:55 PM 48.2 °F - 37.4 °F 66% 30.02 in 10.0 mi NNE 5.8 mph - N/A   Clear
6:15 PM 48.2 °F - 37.4 °F 66% 30.03 in 10.0 mi North 5.8 mph - N/A   Clear
6:35 PM 48.2 °F - 37.4 °F 66% 30.04 in 10.0 mi North 6.9 mph - N/A   Clear
6:55 PM 46.4 °F 42.4 °F 35.6 °F 66% 30.04 in 10.0 mi NNE 8.1 mph - N/A   Clear
7:15 PM 46.4 °F 42.9 °F 35.6 °F 66% 30.05 in 10.0 mi NNE 6.9 mph - N/A   Clear
7:35 PM 46.4 °F 43.5 °F 33.8 °F 62% 30.07 in 10.0 mi North 5.8 mph - N/A   Clear
7:55 PM 44.6 °F 41.4 °F 33.8 °F 66% 30.08 in 10.0 mi North 5.8 mph - N/A   Clear
8:15 PM 42.8 °F 40.1 °F 33.8 °F 70% 30.08 in 10.0 mi NNE 4.6 mph - N/A   Clear
8:35 PM 42.8 °F 38.6 °F 32.0 °F 66% 30.07 in 10.0 mi NNE 6.9 mph - N/A   Clear
8:55 PM 42.8 °F 39.3 °F 32.0 °F 66% 30.06 in 10.0 mi NE 5.8 mph - N/A   Clear
9:15 PM 42.8 °F 39.3 °F 32.0 °F 66% 30.06 in 10.0 mi NE 5.8 mph - N/A   Clear
9:35 PM 42.8 °F 39.3 °F 32.0 °F 66% 30.06 in 10.0 mi NE 5.8 mph - N/A   Clear
9:55 PM 41.0 °F 36.4 °F 32.0 °F 70% 30.06 in 10.0 mi NNE 6.9 mph - N/A   Clear
10:15 PM 41.0 °F 37.1 °F 32.0 °F 70% 30.06 in 10.0 mi NE 5.8 mph - N/A   Clear
10:35 PM 41.0 °F 37.1 °F 32.0 °F 70% 30.06 in 10.0 mi NE 5.8 mph - N/A   Clear
10:55 PM 41.0 °F 37.1 °F 32.0 °F 70% 30.04 in 10.0 mi NE 5.8 mph - N/A   Clear
11:15 PM 39.2 °F 35.9 °F 32.0 °F 75% 30.06 in 10.0 mi NNE 4.6 mph - N/A   Clear
11:35 PM 39.2 °F 35.9 °F 32.0 °F 75% 30.06 in 10.0 mi NNE 4.6 mph - N/A   Clear
11:55 PM 39.2 °F 35.9 °F 32.0 °F 75% 30.06 in 10.0 mi North 4.6 mph - N/A   Clear